Location: Antioch Church
(34.9543°N, 88.5145°W)
Time: 01:48:07
(UTC+00:00)

Meteor 2-4 Rocket - Pass Details

Date: 11 December 2019
Orbit: 798 x 909 km, 81.2° (Epoch: 19 January)

Event Time Altitude Azimuth Distance (km) Brightness Sun altitude
Rises 00:23:06 0° 172° (S) 3,522 7.0 -20.0°
Reaches altitude 10° 00:25:37 10° 168° (SSE) 2,581 6.2 -20.5°
Maximum altitude 00:31:19 51° 93° (E) 1,116 3.9 -21.6°
Enters shadow 00:32:53 41° 49° (NE) 1,286 4.2 -21.9°
